TimeEST,TemperatureF,Dew PointF,Humidity,Sea Level PressureIn,VisibilityMPH,Wind Direction,Wind SpeedMPH,Gust SpeedMPH,PrecipitationIn,Events,Conditions,WindDirDegrees,DateUTC
12:55 AM,39.2,36.3,89,29.97,10.0,NNW,4.6,-,N/A,,Mostly Cloudy,330,2013-02-16 05:55:00
1:55 AM,43.3,36.1,76,29.97,10.0,NNW,6.9,-,N/A,,Mostly Cloudy,340,2013-02-16 06:55:00
2:55 AM,42.8,35.1,74,29.97,10.0,North,8.1,-,N/A,,Partly Cloudy,10,2013-02-16 07:55:00
3:55 AM,42.6,34.3,73,29.96,10.0,North,6.9,-,N/A,,Mostly Cloudy,10,2013-02-16 08:55:00
4:55 AM,42.4,33.1,69,29.94,10.0,North,9.2,-,N/A,,Mostly Cloudy,10,2013-02-16 09:55:00
5:55 AM,41.2,33.1,73,29.94,10.0,North,8.1,-,N/A,,Mostly Cloudy,350,2013-02-16 10:55:00
6:55 AM,40.6,31.8,71,29.95,10.0,NNW,9.2,-,N/A,,Mostly Cloudy,340,2013-02-16 11:55:00
7:55 AM,40.8,31.8,70,29.95,10.0,North,13.8,-,N/A,,Scattered Clouds,360,2013-02-16 12:55:00
8:28 AM,39.2,33.8,81,29.97,10.0,NNW,17.3,25.3,N/A,Rain,Light Rain Showers,340,2013-02-16 13:28:00
8:41 AM,37.4,33.8,87,29.96,10.0,North,18.4,27.6,N/A,Rain,Light Rain,350,2013-02-16 13:41:00
8:45 AM,37.4,35.6,93,29.96,10.0,North,16.1,23.0,N/A,Rain,Light Rain,350,2013-02-16 13:45:00
8:55 AM,37.0,34.9,92,29.96,10.0,North,11.5,21.9,N/A,Rain,Light Rain,360,2013-02-16 13:55:00
9:05 AM,37.4,35.6,93,29.97,10.0,North,10.4,19.6,N/A,Rain,Light Rain,350,2013-02-16 14:05:00
9:10 AM,37.4,35.6,93,29.96,10.0,North,9.2,18.4,N/A,Rain,Light Rain,360,2013-02-16 14:10:00
9:41 AM,35.6,33.8,93,29.96,10.0,North,8.1,-,N/A,Rain,Light Rain,350,2013-02-16 14:41:00
9:55 AM,35.2,34.2,96,29.96,8.0,North,10.4,-,0.00,Rain,Light Rain,10,2013-02-16 14:55:00
10:11 AM,33.8,33.8,100,29.95,2.5,North,8.1,-,N/A,Snow,Light Snow,10,2013-02-16 15:11:00
10:17 AM,33.8,33.8,100,29.96,3.0,North,5.8,-,N/A,Snow,Light Snow,360,2013-02-16 15:17:00
10:18 AM,33.8,33.8,100,29.96,2.5,North,5.8,-,N/A,Snow,Light Snow,360,2013-02-16 15:18:00
10:28 AM,33.8,33.8,100,29.96,1.8,North,5.8,-,N/A,Snow,Light Snow,350,2013-02-16 15:28:00
10:30 AM,33.8,33.8,100,29.96,1.5,North,5.8,-,N/A,Snow,Light Snow,350,2013-02-16 15:30:00
10:33 AM,33.8,33.8,100,29.96,1.5,NNW,4.6,-,N/A,Rain-Snow,Light Rain,330,2013-02-16 15:33:00
10:34 AM,33.8,33.8,100,29.96,1.2,NNW,4.6,-,N/A,Rain-Snow,Light Rain,330,2013-02-16 15:34:00
10:37 AM,33.8,33.8,100,29.96,1.0,NNW,4.6,-,N/A,Rain-Snow,Light Rain,330,2013-02-16 15:37:00
10:40 AM,33.8,33.8,100,29.96,0.8,NNW,4.6,-,N/A,Rain-Snow,Light Rain,330,2013-02-16 15:40:00
10:48 AM,33.8,32.0,93,29.96,0.8,NNW,4.6,-,N/A,Snow,Snow,330,2013-02-16 15:48:00
10:55 AM,32.9,32.5,99,29.97,0.5,NW,3.5,-,0.02,Snow,Snow,310,2013-02-16 15:55:00
11:35 AM,32.0,32.0,100,29.95,1.0,NNW,6.9,-,N/A,Snow,Light Snow,330,2013-02-16 16:35:00
11:42 AM,33.8,32.0,93,29.95,1.2,NNW,6.9,-,N/A,Snow,Light Snow,340,2013-02-16 16:42:00
11:45 AM,33.8,32.0,93,29.95,1.0,NNW,5.8,-,N/A,Snow,Light Snow,330,2013-02-16 16:45:00
11:55 AM,33.8,33.8,100,29.95,1.2,NW,4.6,-,N/A,Snow,Light Snow,320,2013-02-16 16:55:00
11:56 AM,32.9,32.9,100,29.95,1.2,NW,4.6,-,0.07,Snow,Light Snow,320,2013-02-16 16:56:00
11:57 AM,33.8,33.8,100,29.95,1.5,NW,4.6,-,N/A,Snow,Light Snow,320,2013-02-16 16:57:00
12:00 PM,33.8,33.8,100,29.95,2.0,NW,5.8,-,N/A,Snow,Light Snow,320,2013-02-16 17:00:00
12:06 PM,33.8,33.8,100,29.94,1.8,NW,5.8,-,N/A,Snow,Light Snow,320,2013-02-16 17:06:00
12:07 PM,33.8,33.8,100,29.94,1.5,NW,5.8,-,N/A,Snow,Light Snow,310,2013-02-16 17:07:00
12:11 PM,33.8,33.8,100,29.94,1.2,NW,4.6,-,N/A,Snow,Light Snow,320,2013-02-16 17:11:00
12:18 PM,33.8,33.8,100,29.94,1.0,NW,4.6,-,N/A,Snow,Light Snow,310,2013-02-16 17:18:00
12:53 PM,32.0,32.0,100,29.91,0.8,NNW,4.6,-,N/A,Snow,Light Snow,330,2013-02-16 17:53:00
12:55 PM,32.7,32.7,100,29.91,0.8,NNW,4.6,-,0.07,Snow,Light Snow,330,2013-02-16 17:55:00
1:03 PM,32.0,32.0,100,29.91,1.0,NW,3.5,-,N/A,Snow,Light Snow,320,2013-02-16 18:03:00
1:13 PM,33.8,33.8,100,29.90,1.2,NNW,2.3,-,N/A,Snow,Light Snow,330,2013-02-16 18:13:00
1:14 PM,33.8,33.8,100,29.90,1.0,NNW,2.3,-,N/A,Snow,Light Snow,330,2013-02-16 18:14:00
1:17 PM,33.8,33.8,100,29.90,1.2,NNW,2.3,-,N/A,Snow,Light Snow,330,2013-02-16 18:17:00
1:25 PM,33.8,33.8,100,29.89,1.5,North,2.3,-,N/A,Snow,Light Snow,350,2013-02-16 18:25:00
1:29 PM,33.8,33.8,100,29.89,1.8,North,2.3,-,N/A,Snow,Light Snow,360,2013-02-16 18:29:00
1:32 PM,33.8,33.8,100,29.89,2.0,North,2.3,-,N/A,Snow,Light Snow,350,2013-02-16 18:32:00
1:34 PM,33.8,33.8,100,29.89,2.5,Variable,2.3,-,N/A,Snow,Light Snow,0,2013-02-16 18:34:00
1:37 PM,33.8,33.8,100,29.90,3.0,NW,3.5,-,N/A,Snow,Light Snow,310,2013-02-16 18:37:00
1:55 PM,33.6,33.6,100,29.89,3.0,NNW,4.6,-,0.04,Snow,Light Snow,330,2013-02-16 18:55:00
1:59 PM,33.8,33.8,100,29.89,2.5,NW,4.6,-,N/A,Snow,Light Snow,310,2013-02-16 18:59:00
2:04 PM,33.8,33.8,100,29.89,1.8,NW,3.5,-,N/A,Snow,Light Snow,320,2013-02-16 19:04:00
2:09 PM,33.8,33.8,100,29.89,1.5,NW,4.6,-,N/A,Snow,Light Snow,320,2013-02-16 19:09:00
2:10 PM,33.8,33.8,100,29.89,1.8,NW,3.5,-,N/A,Snow,Light Snow,320,2013-02-16 19:10:00
2:28 PM,33.8,33.8,100,29.89,1.5,WNW,4.6,-,N/A,Snow,Light Snow,300,2013-02-16 19:28:00
2:46 PM,33.8,33.8,100,29.88,1.2,NW,4.6,-,N/A,Snow,Light Snow,320,2013-02-16 19:46:00
2:55 PM,33.1,33.1,100,29.88,1.2,WNW,3.5,-,0.05,Snow,Light Snow,300,2013-02-16 19:55:00
2:59 PM,33.8,33.8,100,29.88,1.5,NW,3.5,-,N/A,Snow,Light Snow,310,2013-02-16 19:59:00
3:03 PM,33.8,33.8,100,29.88,1.8,NW,3.5,-,N/A,Snow,Light Snow,320,2013-02-16 20:03:00
3:07 PM,33.8,33.8,100,29.88,1.5,NNW,3.5,-,N/A,Snow,Light Snow,330,2013-02-16 20:07:00
3:12 PM,33.8,33.8,100,29.87,1.2,North,3.5,-,N/A,Snow,Light Snow,350,2013-02-16 20:12:00
3:17 PM,33.8,33.8,100,29.87,1.5,NNW,2.3,-,N/A,Snow,Light Snow,330,2013-02-16 20:17:00
3:21 PM,33.8,33.8,100,29.87,1.8,NNW,2.3,-,N/A,Snow,Light Snow,340,2013-02-16 20:21:00
3:32 PM,33.8,33.8,100,29.87,2.0,North,3.5,-,N/A,Snow,Light Snow,360,2013-02-16 20:32:00
3:44 PM,33.8,33.8,100,29.87,1.8,NNE,2.3,-,N/A,Snow,Light Snow,20,2013-02-16 20:44:00
3:46 PM,33.8,33.8,100,29.87,2.0,NNE,2.3,-,N/A,Snow,Light Snow,20,2013-02-16 20:46:00
3:47 PM,33.8,33.8,100,29.86,1.8,NNE,3.5,-,N/A,Snow,Light Snow,30,2013-02-16 20:47:00
3:48 PM,33.8,33.8,100,29.86,2.0,North,-9999.0,-,N/A,Snow,Light Snow,0,2013-02-16 20:48:00
3:54 PM,33.8,33.8,100,29.86,2.5,North,-9999.0,-,N/A,Snow,Light Snow,0,2013-02-16 20:54:00
3:55 PM,33.3,33.3,100,29.86,2.5,North,-9999.0,-,0.03,Snow,Light Snow,0,2013-02-16 20:55:00
4:04 PM,33.8,33.8,100,29.84,3.0,NE,5.8,-,N/A,Snow,Light Snow,50,2013-02-16 21:04:00
4:14 PM,33.8,33.8,100,29.86,4.0,NW,5.8,-,N/A,Rain-Snow,Light Rain,320,2013-02-16 21:14:00
4:28 PM,33.8,33.8,100,29.87,7.0,NNW,6.9,-,N/A,Rain,Light Rain,330,2013-02-16 21:28:00
4:55 PM,34.2,33.4,97,29.87,8.0,North,6.9,-,N/A,Rain,Light Rain,350,2013-02-16 21:55:00
5:15 PM,33.8,33.8,100,29.88,10.0,North,6.9,-,N/A,Rain,Light Rain,10,2013-02-16 22:15:00
5:51 PM,33.8,33.8,100,29.88,5.0,NNW,4.6,-,N/A,Rain-Snow,Light Rain,340,2013-02-16 22:51:00
5:55 PM,34.0,33.4,98,29.88,8.0,NW,4.6,-,0.00,Rain-Snow,Light Rain,310,2013-02-16 22:55:00
6:03 PM,33.8,33.8,100,29.88,9.0,NW,3.5,-,N/A,Rain,Light Rain,320,2013-02-16 23:03:00
6:48 PM,33.8,33.8,100,29.89,6.0,NNW,6.9,-,N/A,Rain-Snow,Light Rain,340,2013-02-16 23:48:00
6:55 PM,33.6,33.1,98,29.90,4.0,NNW,6.9,-,0.00,Rain-Snow,Light Rain,340,2013-02-16 23:55:00
7:02 PM,33.8,33.8,100,29.90,2.5,NNW,5.8,-,N/A,Snow,Light Snow,340,2013-02-17 00:02:00
7:11 PM,33.8,33.8,100,29.90,3.0,North,5.8,-,N/A,Snow,Light Snow,350,2013-02-17 00:11:00
7:15 PM,33.8,33.8,100,29.90,4.0,North,5.8,-,N/A,Rain-Snow,Light Rain,350,2013-02-17 00:15:00
7:25 PM,33.8,33.8,100,29.89,8.0,NNE,3.5,-,N/A,Rain-Snow,Light Rain,20,2013-02-17 00:25:00
7:28 PM,33.8,33.8,100,29.89,9.0,NNE,4.6,-,N/A,Rain,Light Rain,20,2013-02-17 00:28:00
7:42 PM,33.8,33.8,100,29.90,10.0,NW,4.6,-,N/A,,Mostly Cloudy,320,2013-02-17 00:42:00
7:44 PM,33.8,33.8,100,29.90,10.0,NW,4.6,-,N/A,,Mostly Cloudy,320,2013-02-17 00:44:00
7:55 PM,33.6,32.9,97,29.90,10.0,NNW,3.5,-,0.00,,Mostly Cloudy,330,2013-02-17 00:55:00
8:55 PM,33.1,32.5,98,29.93,10.0,NW,6.9,-,N/A,,Mostly Cloudy,310,2013-02-17 01:55:00
9:55 PM,33.3,32.5,97,29.95,10.0,WNW,5.8,-,N/A,,Mostly Cloudy,290,2013-02-17 02:55:00
10:55 PM,33.4,27.7,79,29.97,10.0,NW,9.2,-,N/A,,Mostly Cloudy,310,2013-02-17 03:55:00
11:55 PM,32.4,21.6,64,29.99,10.0,NW,10.4,21.9,N/A,,Scattered Clouds,310,2013-02-17 04:55:00